Wetbulb
55.32 55.32 55.03 54.44 54.12 54.29 54.57 54.27 53.01 52.79 53.13 53.52 53.06 52.81 52.56 52.36 52.02 51.95 51.89 51.83 51.54 51.46 51.44 51.54 51.45 51.19 51.04 51.17 51.07 50.94 50.80 50.67 50.54 49.65 48.95 48.91 49.36 49.47 49.46 49.27 49.28 49.15 48.92 48.56 48.59 48.52 48.56 48.70 48.56 48.59 48.59 48.44 48.33 48.33 48.43 48.83 48.62 48.17 47.54 47.13 46.59 46.21 45.97 45.86 45.49 45.32 45.07 44.89 44.55
55.69 55.39 54.59 52.91 52.51 53.40 54.26 53.97 53.43 53.15 53.27 53.73 53.30 52.98 52.67 52.26 51.86 51.60 51.47 51.41 51.48 51.53 51.64 51.74 51.32 51.21 51.23 51.20 50.94 50.80 50.67 50.47 50.39 49.86 49.47 49.41 49.54 49.51 49.37 49.23 49.15 49.08 48.90 48.92 48.71 48.70 48.78 48.81 48.93 48.82 48.78 48.67 48.26 48.13 48.20 48.86 48.80 48.15 47.42 47.11 46.69 46.47 46.10 45.73 45.45 45.28 45.20 44.89 44.68
55.70 55.47 55.16 54.82 54.66 54.56 54.44 54.27 54.13 54.02 53.91 53.81 53.58 53.23 52.81 52.41 51.93 51.73 51.53 51.60 51.74 51.86 51.77 51.74 51.28 51.21 51.34 51.38 51.15 50.82 50.71 50.48 50.39 50.08 49.78 49.48 49.47 49.31 48.95 48.64 48.72 48.54 48.36 48.63 48.75 48.98 49.04 49.07 48.75 48.32 48.10 48.25 47.82 47.56 47.57 48.16 48.17 47.76 47.35 47.10 47.04 46.90 46.56 46.15 45.70 45.54 45.37 45.24 45.11
55.58 55.48 55.23 54.98 54.84 54.59 54.41 54.15 54.07 54.00 53.95 53.78 53.59 53.30 52.95 52.69 52.42 52.22 52.02 51.88 51.94 51.92 51.90 51.74 51.56 51.32 51.11 50.91 50.97 50.92 50.65 49.85 49.96 49.85 49.68 49.41 49.25 49.23 49.08 48.77 48.51 48.54 48.66 48.91 49.10 49.21 49.25 49.18 48.89 48.39 47.96 47.68 47.41 47.27 47.44 47.73 47.57 47.37 47.20 46.99 47.08 46.88 46.46 46.10 46.00 46.32 46.51 46.55 46.42
55.07 55.04 54.93 54.74 54.74 54.65 54.41 54.23 54.07 53.95 53.87 53.83 53.57 53.31 53.06 52.90 52.77 52.50 52.30 51.98 51.88 51.93 52.11 52.18 51.93 51.49 50.95 50.84 50.99 50.93 50.84 50.38 48.87 48.90 49.52 49.31 49.18 49.04 48.99 48.91 48.67 48.60 48.67 48.75 48.94 49.02 49.19 49.33 49.54 48.84 47.89 47.41 47.41 47.28 47.31 47.39 47.14 47.00 47.04 47.71 47.07 46.75 46.79 47.57 47.94 47.85 47.54 47.00 46.91
54.38 54.43 54.46 54.43 54.56 54.49 54.34 54.04 54.05 53.94 53.78 53.58 53.18 52.93 52.76 52.65 52.65 52.50 52.29 52.11 52.11 52.17 52.09 51.45 50.88 50.38 50.37 50.95 50.85 50.69 50.61 50.55 49.89 49.77 49.85 49.72 49.39 49.28 49.15 48.98 48.87 48.67 48.48 48.48 48.55 48.72 49.13 49.75 50.94 50.65 49.61 48.76 48.29 47.83 47.40 47.35 46.66 46.69 47.20 48.10 48.02 48.11 48.30 48.12 47.76 47.40 47.18 46.73 46.50
54.11 54.13 54.24 54.40 54.34 54.18 54.07 54.03 53.89 53.77 53.46 53.24 52.71 52.39 52.27 52.35 52.30 52.15 52.20 52.26 52.39 52.17 51.76 50.82 51.03 51.12 51.21 51.21 51.04 50.83 50.56 50.30 50.35 50.35 50.22 49.92 49.46 49.12 48.72 48.39 48.36 48.41 48.31 48.36 48.38 49.03 49.75 50.26 49.96 49.56 49.04 48.47 49.15 48.88 47.98 47.20 46.91 47.09 47.41 47.34 47.66 47.84 47.89 47.80 47.76 47.45 46.82 46.15 45.32
54.16 54.07 54.07 54.14 54.14 54.00 53.85 53.88 53.70 53.45 53.18 52.97 52.45 52.32 52.17 52.29 52.20 52.14 51.99 52.10 52.07 51.95 51.81 51.51 52.10 52.16 51.86 51.56 51.10 50.89 50.65 50.54 50.22 49.96 49.77 49.42 49.07 48.81 48.50 48.22 48.03 48.11 48.18 48.18 48.90 49.76 50.10 49.77 49.13 48.79 48.66 48.53 48.66 48.54 47.84 46.94 46.66 46.58 46.35 45.70 46.25 46.87 47.27 47.22 47.05 46.58 45.76 44.85 43.83
53.95 53.95 53.99 54.17 54.23 54.05 53.92 53.77 53.56 53.21 52.89 52.54 52.35 52.27 52.23 52.13 52.11 51.99 51.95 51.82 51.51 51.75 52.00 52.20 52.12 51.86 51.62 51.25 50.94 50.62 50.48 50.22 49.68 49.33 49.06 48.77 48.48 48.35 48.14 47.99 47.88 47.90 48.13 48.42 49.23 49.50 49.50 49.22 48.75 48.48 48.48 48.66 48.65 47.90 47.03 46.13 45.33 44.85 44.41 44.17 44.27 44.82 45.42 45.55 45.51 44.97 44.35 43.60 42.78
53.47 53.54 53.71 53.67 53.84 53.77 53.64 53.48 53.23 52.90 52.65 52.28 52.22 52.14 51.60 50.51 51.09 51.68 51.93 51.72 51.66 52.23 52.59 52.50 52.09 51.83 51.55 51.23 50.81 50.51 50.22 49.88 49.42 49.07 48.74 48.39 48.12 48.08 48.06 47.90 47.87 47.85 47.93 48.20 48.55 48.89 49.02 48.61 48.17 47.99 48.16 48.47 47.62 46.76 45.93 45.36 44.75 43.93 43.29 43.00 42.75 42.83 43.04 43.12 43.33 43.21 42.93 42.40 42.33
53.07 53.29 53.31 53.34 53.36 53.14 52.86 52.91 52.57 52.28 52.13 51.95 51.92 51.77 51.50 50.75 51.32 51.70 51.93 52.01 52.46 52.52 52.52 52.41 51.99 51.40 50.91 50.79 50.63 50.46 50.16 49.70 49.11 48.69 48.37 48.04 47.72 47.73 47.88 47.99 47.92 47.92 47.81 47.77 47.81 48.30 48.48 48.06 47.75 47.53 47.51 47.30 46.53 45.96 45.43 45.10 44.62 43.85 43.02 42.33 42.42 42.43 42.60 42.69 42.40 42.00 41.76 42.00 42.20
52.67 52.95 53.03 52.97 52.91 52.50 52.31 52.03 51.75 51.62 51.41 51.40 51.41 51.55 51.61 51.78 51.89 51.89 51.91 52.29 51.83 51.73 51.75 51.31 51.01 50.65 50.32 50.29 50.48 50.14 49.61 49.33 48.78 48.28 47.92 47.73 47.74 47.65 47.68 47.80 47.80 47.72 47.61 47.51 47.31 47.19 46.96 46.79 46.80 46.69 46.49 46.04 45.63 45.21 44.92 44.82 44.38 43.84 43.16 42.63 42.51 42.35 42.20 42.20 42.12 41.84 41.67 42.04 41.92
52.33 52.40 52.48 52.42 52.14 51.88 51.61 51.20 51.06 51.06 51.00 50.93 51.06 51.20 51.41 51.46 51.56 51.75 52.06 52.28 51.32 50.81 50.50 50.21 50.11 50.10 50.08 49.91 50.14 49.75 49.20 48.78 48.46 48.11 47.91 47.85 47.79 47.76 47.63 47.56 47.43 47.32 47.21 47.06 46.89 46.50 46.09 45.62 45.43 45.18 44.96 44.77 44.53 44.49 44.38 44.39 43.99 43.66 43.24 42.91 42.49 42.00 41.72 41.63 41.55 41.59 41.72 41.59 41.30
52.00 52.00 51.94 51.73 51.46 51.12 50.85 50.58 50.58 50.59 50.59 50.72 50.86 51.07 51.13 51.33 51.32 51.33 51.30 51.54 50.43 49.82 49.57 49.67 49.49 49.57 49.59 49.56 49.27 48.91 48.66 48.61 48.43 48.37 48.14 47.93 47.97 47.68 47.38 47.23 47.04 46.89 46.74 46.60 46.20 45.87 45.39 45.07 44.81 44.53 44.27 44.07 43.96 44.07 44.08 44.13 43.78 43.44 43.14 42.89 42.31 41.79 41.19 40.83 40.91 40.99 40.95 40.69 40.58
51.46 51.46 51.46 51.19 50.92 50.65 50.38 50.17 50.24 50.31 50.44 50.43 50.64 50.71 50.84 50.89 50.71 50.32 49.97 49.99 49.49 49.37 49.33 49.23 48.99 48.92 48.85 48.80 48.64 48.56 48.55 48.49 48.15 48.03 47.72 47.32 47.17 46.93 46.61 46.36 46.22 46.13 46.03 45.77 45.29 44.88 44.45 44.17 43.87 43.78 43.58 43.36 43.16 43.28 43.28 43.36 43.22 42.92 42.71 42.25 41.75 41.15 40.53 40.03 40.07 40.11 39.95 39.77 39.66
50.99 50.99 50.99 50.79 50.58 50.38 50.24 50.11 50.10 50.16 50.14 50.07 50.16 50.20 50.32 50.32 50.44 49.73 48.97 48.73 48.92 48.97 48.91 48.62 48.48 48.44 48.32 48.10 48.29 48.40 48.12 47.90 47.54 47.14 46.57 46.01 45.53 45.23 44.84 44.62 44.57 44.56 44.59 44.49 44.03 43.53 43.08 42.73 42.53 42.41 42.24 41.89 41.70 41.47 41.51 41.54 41.62 41.58 41.37 41.13 40.55 40.13 39.64 39.11 39.38 39.30 39.14 38.77 38.46
50.31 50.52 50.52 50.45 50.18 49.97 49.83 49.76 49.76 49.74 49.80 49.74 49.75 49.68 49.75 49.90 50.04 49.07 47.84 47.44 47.98 48.13 47.98 47.87 47.85 47.83 47.73 47.59 47.92 47.74 47.34 46.67 46.23 45.50 44.81 44.03 43.52 43.10 42.89 42.80 42.77 42.81 42.82 42.61 42.11 41.66 41.24 41.10 41.01 40.90 40.61 40.15 39.73 39.50 39.32 39.40 39.53 39.55 39.49 39.42 39.14 38.87 38.51 38.19 38.36 38.54 38.42 38.17 37.67
49.36 49.56 49.70 49.70 49.56 49.42 49.35 49.28 49.35 49.35 49.47 49.47 49.38 49.27 49.33 49.31 49.16 48.58 47.79 47.27 47.27 47.17 46.94 46.92 47.32 47.47 47.50 47.39 47.26 46.60 45.85 45.07 44.55 44.02 43.28 42.46 42.03 41.60 41.39 41.27 41.10 41.07 41.08 40.75 40.31 39.88 39.57 39.47 39.48 39.28 39.07 38.79 38.46 38.22 38.04 38.00 38.01 37.95 37.98 38.03 37.94 37.85 37.77 37.58 37.77 37.77 37.85 37.79 37.58
48.28 48.35 48.55 48.62 48.68 48.81 48.81 48.66 48.86 49.05 49.18 49.37 49.21 49.10 48.98 48.87 48.62 48.30 47.92 47.44 46.75 46.34 46.26 46.17 46.58 46.75 46.68 46.15 45.72 44.84 44.00 43.61 42.98 42.50 41.97 41.32 40.76 40.37 40.11 39.99 39.83 39.74 39.57 39.43 39.03 38.68 38.32 38.16 38.10 38.07 37.96 37.76 37.66 37.61 37.57 37.48 37.38 37.31 37.32 37.32 37.36 37.43 37.43 37.45 37.47 37.53 37.60 37.51 37.36
47.35 47.41 47.55 47.75 48.01 48.08 48.34 48.46 48.70 49.00 49.16 49.22 49.04 48.83 48.81 48.72 48.41 47.88 47.19 46.49 45.89 45.77 45.82 45.44 45.19 45.02 44.72 44.47 43.86 43.24 42.52 42.13 41.54 41.06 40.59 40.15 39.62 39.26 39.03 39.03 38.98 38.92 38.86 38.72 38.36 37.92 37.65 37.41 37.22 37.21 37.20 37.22 37.29 37.21 37.31 37.31 37.32 37.26 37.30 37.22 37.33 37.32 37.44 37.47 37.55 37.58 37.58 37.53 37.31
46.88 46.95 47.15 47.41 47.55 47.81 48.07 48.44 48.77 48.97 48.99 48.90 48.77 48.56 48.35 48.19 47.69 46.97 46.16 45.28 45.04 44.94 44.84 44.12 43.44 43.01 42.63 42.66 42.31 41.83 41.20 40.74 40.20 39.76 39.58 39.17 38.92 38.72 38.70 38.64 38.67 38.65 38.59 38.41 38.05 37.53 37.13 36.79 36.55 36.57 36.60 36.61 36.69 36.78 36.88 36.86 37.01 37.19 37.28 37.47 37.58 37.61 37.71 37.79 37.82 37.69 37.60 37.40 37.32
46.54 46.75 46.88 47.08 47.21 47.40 47.77 48.25 48.65 48.64 48.49 48.26 48.13 47.78 47.45 46.96 46.28 45.77 45.13 44.49 44.02 43.87 43.57 43.00 41.97 41.29 40.99 40.81 40.66 40.49 40.09 39.66 39.16 39.00 38.94 38.77 38.73 38.66 38.80 38.81 38.57 38.30 38.27 38.17 37.75 37.23 36.66 36.26 35.88 35.84 35.84 35.67 35.57 35.73 35.92 35.98 36.24 36.47 36.72 36.90 37.04 37.05 37.01 37.25 37.45 37.52 37.48 37.42 37.26
46.21 46.48 46.61 46.81 46.86 46.88 47.02 47.68 48.04 47.93 47.64 47.28 47.01 46.59 46.23 45.52 45.16 44.69 44.19 43.64 42.86 42.57 42.27 41.81 40.94 40.29 39.94 39.65 39.61 39.45 39.26 38.85 38.62 38.45 38.51 38.57 38.37 38.45 38.46 38.70 38.30 38.06 38.13 38.35 37.89 37.24 36.50 35.79 35.24 34.78 34.66 34.58 34.52 34.55 34.74 34.88 35.08 35.16 35.28 35.33 35.37 35.44 35.52 35.79 35.93 36.11 36.17 36.25 36.25
45.88 46.01 46.26 46.44 46.53 46.62 46.89 47.14 47.17 46.90 46.51 46.12 45.82 45.54 45.13 44.61 44.19 43.69 43.10 42.49 41.87 41.37 41.03 40.64 40.15 39.77 39.50 39.19 39.02 38.76 38.44 38.08 37.90 37.88 37.94 37.90 37.87 37.78 37.76 37.82 37.72 37.97 38.39 39.03 38.42 37.62 36.62 35.46 34.88 34.30 33.91 33.58 33.59 33.70 33.95 34.08 34.05 33.95 33.95 33.83 33.92 33.93 34.01 34.37 34.66 34.70 34.75 34.80 34.95
45.53 45.58 45.68 45.90 46.05 46.18 46.29 46.38 46.16 45.88 45.57 45.37 45.15 44.73 44.36 43.85 43.27 42.69 42.04 41.46 40.95 40.61 40.19 39.80 39.61 39.35 39.06 38.79 38.47 38.02 37.68 37.34 37.15 37.16 37.09 37.15 37.16 36.92 36.82 36.79 37.11 37.79 38.42 38.47 37.56 36.98 36.42 35.34 35.09 34.40 33.67 33.27 33.16 33.24 33.32 33.49 33.47 33.32 33.24 33.08 33.04 33.01 33.11 33.34 33.73 34.02 34.25 34.39 34.49
45.22 45.25 45.29 45.60 45.62 45.61 45.52 45.37 45.33 45.10 44.91 44.67 44.32 43.94 43.50 43.02 42.51 41.84 41.26 40.66 40.23 39.97 39.67 39.31 39.02 38.61 38.25 38.00 37.62 37.31 37.05 36.86 36.89 36.85 36.60 36.05 36.17 36.09 35.93 35.72 36.14 37.27 38.32 37.94 36.95 36.53 36.26 36.14 35.40 34.29 33.40 33.63 33.17 32.81 32.67 32.57 32.75 32.74 32.70 32.57 32.59 32.49 32.46 32.57 32.93 33.24 33.67 34.14 34.34
44.90 44.96 45.04 45.29 45.24 45.00 44.75 44.74 44.65 44.54 44.36 43.96 43.59 43.09 42.61 42.29 41.83 41.23 40.55 39.90 39.63 39.45 39.26 38.95 38.71 38.29 38.03 37.97 37.93 37.34 36.82 37.00 36.92 36.67 36.18 35.79 35.29 35.11 35.08 35.02 35.30 36.24 37.13 37.54 36.75 36.36 36.34 36.40 35.79 34.84 34.03 33.55 32.89 32.34 31.87 31.62 31.92 32.14 32.11 32.04 32.07 32.11 32.12 32.13 32.36 32.59 32.99 33.28 33.70
44.55 44.65 44.79 44.85 44.69 44.45 44.34 44.39 44.20 43.89 43.60 43.28 42.91 42.57 42.10 41.75 41.15 40.44 39.80 39.19 38.95 38.83 38.82 38.96 38.79 38.83 38.69 38.17 37.91 37.30 36.63 36.25 36.21 36.07 35.70 35.38 34.98 34.70 34.48 34.48 34.65 35.15 35.88 36.78 36.68 36.59 36.43 36.46 36.07 35.51 34.47 32.91 32.37 31.97 31.55 31.26 31.14 31.10 31.15 31.25 31.39 31.56 31.59 31.64 31.76 31.90 32.00 32.10 32.36
44.18 44.37 44.37 44.32 44.05 43.96 43.93 43.96 43.65 43.45 43.24 42.97 42.57 42.18 41.71 40.90 40.27 39.59 38.99 38.43 38.03 38.07 38.39 38.91 38.88 38.72 38.27 37.48 37.04 36.70 36.32 36.07 35.64 35.36 35.13 34.77 34.77 34.53 34.50 34.68 34.84 35.21 35.79 36.54 36.73 36.79 36.76 36.35 35.59 34.63 33.72 32.68 31.31 30.64 30.23 29.85 29.84 29.88 30.13 30.37 30.60 30.77 30.89 30.96 31.11 31.13 31.18 31.25 31.49
43.86 43.98 43.92 43.70 43.51 43.47 43.47 43.43 43.33 43.01 42.92 42.71 42.20 41.67 40.82 39.89 39.24 38.60 38.17 37.61 37.55 37.69 37.90 38.12 37.82 37.49 36.98 36.67 36.35 35.90 35.49 35.51 35.21 34.71 34.38 33.81 33.78 33.80 33.94 34.24 34.52 35.11 35.83 36.87 36.97 36.59 35.92 34.94 33.80 33.18 32.66 32.49 31.11 30.07 29.16 28.81 28.66 28.84 29.07 29.43 29.71 29.96 30.11 30.34 30.36 30.61 30.78 31.07 31.22
43.54 43.51 43.37 43.13 42.91 42.85 42.84 42.86 42.62 42.45 42.06 41.71 41.15 40.45 39.72 38.92 38.37 38.09 37.89 37.75 37.59 37.32 37.18 37.30 37.03 36.77 36.35 36.16 35.94 35.69 35.45 35.31 35.17 34.81 34.48 34.41 34.10 34.24 34.38 34.49 34.18 34.68 35.50 36.45 35.79 34.99 34.12 33.18 32.66 32.29 32.18 32.04 30.51 29.25 28.45 28.24 28.13 28.39 28.65 28.78 29.07 29.37 29.63 29.84 30.09 30.38 30.60 30.87 31.02
43.08 43.03 42.85 42.46 42.25 42.14 42.07 42.00 41.70 41.35 40.90 40.28 39.70 39.06 38.64 38.39 38.37 38.43 38.32 37.74 37.22 37.00 36.89 36.92 36.58 36.25 36.05 36.00 35.93 35.95 35.82 35.55 35.36 35.36 35.57 35.63 35.35 34.72 34.19 33.88 33.64 33.83 34.20 34.44 33.82 33.11 32.68 32.21 31.81 31.37 31.01 30.62 29.68 28.96 28.48 28.19 28.05 28.29 28.50 28.68 28.96 29.17 29.53 29.87 30.10 30.33 30.60 30.96 31.08
42.56 42.40 42.21 41.79 41.58 41.42 41.37 41.15 40.66 40.20 39.72 39.01 38.42 38.07 37.81 37.95 38.54 38.45 38.01 37.43 37.04 36.85 36.66 36.33 35.91 35.74 35.64 35.75 35.95 36.20 36.42 36.51 36.25 36.07 36.02 35.85 35.51 34.78 33.95 33.46 33.28 32.88 32.77 33.17 32.68 32.20 31.83 31.49 31.06 30.67 30.38 30.48 29.41 28.60 28.08 27.86 27.75 27.99 28.37 28.55 28.99 29.46 29.82 30.15 30.43 30.73 31.12 31.60 32.06
41.80 41.57 41.39 41.17 40.93 40.71 40.59 40.34 39.87 39.30 38.64 38.09 37.75 37.63 37.52 37.51 37.64 37.39 37.29 37.14 37.08 36.75 36.59 36.34 36.24 36.12 36.25 36.50 36.85 36.89 36.68 36.28 36.11 35.95 35.74 35.77 35.11 34.23 33.40 33.05 32.66 32.36 32.14 32.46 32.05 31.71 31.42 31.03 30.63 30.14 29.90 29.94 28.95 28.23 27.67 27.65 27.59 27.89 28.23 28.55 29.17 29.77 30.18 30.62 31.11 31.60 32.10 32.68 32.88
41.00 40.81 40.59 40.35 40.19 40.02 39.88 39.53 39.09 38.50 38.05 37.73 37.51 37.50 37.57 37.53 37.10 37.03 36.99 36.89 36.84 36.92 36.89 36.90 36.99 37.19 37.27 37.36 37.41 37.01 36.43 35.81 35.78 35.62 35.47 35.07 34.34 33.57 32.89 32.49 32.35 32.02 31.76 32.10 31.63 31.33 31.09 30.69 30.24 30.14 29.93 29.66 28.40 27.68 27.40 27.41 27.52 27.81 28.26 28.73 29.28 29.78 30.34 30.89 31.74 32.34 32.67 32.61 32.39
40.46 39.99 39.76 39.50 39.50 39.37 39.09 38.77 38.37 38.08 37.79 37.62 37.36 37.42 37.59 37.66 37.49 37.53 37.41 37.10 37.26 37.41 37.44 37.25 37.09 37.02 36.81 36.55 36.41 35.93 35.45 35.21 34.99 34.78 34.50 34.08 33.77 33.19 32.57 32.04 32.24 31.81 31.35 31.80 31.45 31.16 30.83 30.44 30.11 30.18 30.08 29.25 27.74 27.15 27.02 27.08 27.35 27.73 28.10 28.53 28.93 29.49 30.16 30.78 31.54 31.77 31.64 31.39 31.00
39.87 39.52 39.19 38.99 38.82 38.64 38.45 38.35 38.00 37.66 37.19 36.97 37.09 37.25 37.55 37.68 37.81 38.00 38.07 37.72 37.52 37.19 36.75 36.44 36.17 35.85 35.63 35.51 35.27 35.08 35.06 35.00 34.56 34.01 33.61 33.24 33.01 32.77 32.46 32.02 32.16 32.05 31.75 31.49 31.25 30.98 30.69 30.39 30.25 30.06 29.42 28.10 27.13 26.72 26.58 26.69 26.99 27.37 27.73 27.92 28.27 28.79 29.47 30.14 30.33 30.25 29.94 29.70 29.59
39.37 39.06 38.84 38.72 38.60 38.28 38.08 38.19 37.79 37.11 36.63 36.57 36.85 37.11 37.26 37.40 37.41 37.54 37.43 36.81 36.46 35.98 35.56 35.54 35.39 35.35 35.33 35.28 34.96 34.93 34.91 34.79 34.01 33.37 32.90 32.67 32.68 32.49 32.27 32.11 31.92 32.04 32.11 31.69 31.38 31.04 30.69 30.44 30.27 29.89 28.88 27.13 26.63 26.27 26.11 26.10 26.35 26.52 26.82 27.02 27.43 27.70 28.09 28.82 28.86 28.73 28.60 28.92 29.28
38.91 38.87 38.88 38.80 38.45 37.94 37.49 37.21 36.64 36.38 36.17 36.04 36.23 36.44 36.68 36.75 36.67 36.64 36.40 35.97 35.84 35.47 35.16 35.15 35.15 35.14 35.12 34.94 34.47 34.05 33.88 34.01 33.65 33.19 32.91 32.82 32.63 32.48 32.19 31.92 31.93 32.05 32.31 32.39 31.74 31.17 30.78 30.52 30.10 29.79 29.01 27.54 26.52 26.10 25.88 25.73 25.54 25.59 25.73 25.85 26.13 26.33 26.49 27.02 27.29 27.46 27.74 28.32 29.88
38.78 38.79 38.71 38.33 37.63 36.95 36.43 36.05 35.74 35.64 35.60 35.49 35.61 35.72 35.88 36.03 36.11 36.25 36.24 36.03 35.85 35.62 35.31 34.97 34.92 34.79 34.55 33.89 33.49 33.11 32.94 33.11 33.29 33.21 33.02 32.62 32.74 33.12 33.14 32.03 32.16 32.37 32.74 33.28 32.39 31.52 30.85 30.52 30.17 29.75 28.99 27.51 26.57 26.10 25.76 25.42 25.09 24.86 24.75 24.68 24.72 24.84 25.07 25.51 26.00 26.36 26.63 26.82 28.17
38.77 38.36 37.65 36.83 36.36 35.97 35.67 35.28 35.20 35.33 35.44 35.46 35.45 35.51 35.63 35.90 36.15 36.32 36.30 36.09 35.83 35.46 35.05 34.55 34.37 34.20 33.77 32.84 32.59 32.43 32.28 32.34 32.62 32.83 32.82 32.41 32.61 33.37 33.69 32.69 32.80 32.74 33.11 33.91 33.26 32.22 31.22 30.77 30.39 29.96 29.07 27.52 26.61 25.98 25.62 25.17 24.58 24.07 23.86 23.92 23.88 23.86 23.87 24.12 24.83 25.26 25.52 25.74 26.19
MSLP
1015.17 1015.13 1015.13 1015.13 1015.13 1015.13 1015.13 1015.09 1015.09 1015.09 1015.09 1015.09 1015.09 1015.01 1014.93 1014.85 1014.77 1014.61 1014.45 1014.33 1014.21 1014.09 1013.93 1013.89 1013.85 1013.85 1013.85 1013.93 1013.97 1014.05 1014.09 1014.17 1014.25 1014.33 1014.37 1014.45 1014.49 1014.53 1014.57 1014.61 1014.65 1014.65 1014.69 1014.69 1014.69 1014.73 1014.73 1014.69 1014.73 1014.81 1014.89 1014.93 1015.05 1015.13 1015.21 1015.29 1015.41 1015.49 1015.53 1015.65 1015.73 1015.85 1015.97 1016.09 1016.25 1016.37 1016.49 1016.61 1016.77
1015.09 1015.05 1015.05 1015.05 1015.01 1014.97 1014.93 1014.93 1014.93 1014.93 1014.93 1014.89 1014.85 1014.81 1014.77 1014.65 1014.61 1014.53 1014.37 1014.29 1014.13 1014.05 1013.93 1013.81 1013.77 1013.77 1013.81 1013.81 1013.81 1013.89 1013.93 1014.01 1014.09 1014.17 1014.25 1014.29 1014.37 1014.37 1014.41 1014.45 1014.45 1014.49 1014.53 1014.53 1014.57 1014.57 1014.57 1014.57 1014.61 1014.65 1014.69 1014.81 1014.89 1015.01 1015.09 1015.17 1015.29 1015.41 1015.49 1015.57 1015.65 1015.73 1015.85 1015.97 1016.09 1016.25 1016.37 1016.45 1016.57
1014.97 1014.93 1014.89 1014.85 1014.81 1014.81 1014.81 1014.77 1014.77 1014.73 1014.69 1014.65 1014.61 1014.57 1014.53 1014.45 1014.41 1014.33 1014.25 1014.13 1014.05 1013.93 1013.89 1013.81 1013.73 1013.69 1013.65 1013.65 1013.65 1013.69 1013.77 1013.81 1013.93 1014.01 1014.13 1014.21 1014.25 1014.25 1014.25 1014.29 1014.29 1014.29 1014.33 1014.37 1014.37 1014.37 1014.37 1014.37 1014.41 1014.49 1014.57 1014.65 1014.73 1014.81 1014.93 1014.97 1015.09 1015.29 1015.41 1015.53 1015.61 1015.65 1015.81 1015.89 1016.01 1016.13 1016.25 1016.37 1016.53
1014.81 1014.81 1014.77 1014.73 1014.65 1014.65 1014.61 1014.57 1014.53 1014.53 1014.53 1014.49 1014.41 1014.37 1014.33 1014.29 1014.25 1014.13 1014.05 1013.97 1013.89 1013.81 1013.81 1013.73 1013.65 1013.61 1013.57 1013.53 1013.53 1013.53 1013.53 1013.65 1013.73 1013.85 1013.97 1014.09 1014.21 1014.21 1014.17 1014.17 1014.17 1014.17 1014.17 1014.17 1014.13 1014.13 1014.17 1014.21 1014.29 1014.37 1014.41 1014.53 1014.57 1014.65 1014.73 1014.81 1014.93 1015.09 1015.21 1015.37 1015.53 1015.65 1015.69 1015.81 1015.93 1016.09 1016.29 1016.49 1016.61
1014.73 1014.65 1014.65 1014.57 1014.53 1014.49 1014.37 1014.37 1014.33 1014.29 1014.29 1014.29 1014.25 1014.25 1014.21 1014.13 1014.09 1014.01 1013.93 1013.89 1013.81 1013.73 1013.65 1013.61 1013.53 1013.53 1013.53 1013.53 1013.49 1013.45 1013.41 1013.41 1013.57 1013.69 1013.85 1014.01 1014.13 1014.13 1014.09 1014.05 1014.01 1013.97 1013.93 1013.93 1013.93 1013.93 1013.93 1014.01 1014.21 1014.33 1014.33 1014.33 1014.41 1014.53 1014.61 1014.69 1014.81 1014.89 1015.05 1015.21 1015.41 1015.61 1015.73 1015.85 1016.05 1016.25 1016.45 1016.65 1016.81
1014.65 1014.57 1014.53 1014.49 1014.37 1014.29 1014.25 1014.17 1014.17 1014.17 1014.13 1014.09 1014.09 1014.05 1014.01 1013.93 1013.93 1013.89 1013.85 1013.77 1013.65 1013.57 1013.45 1013.37 1013.37 1013.37 1013.41 1013.49 1013.49 1013.41 1013.37 1013.41 1013.49 1013.61 1013.73 1013.85 1013.97 1014.01 1013.97 1013.89 1013.81 1013.77 1013.73 1013.69 1013.69 1013.69 1013.77 1013.89 1014.21 1014.37 1014.41 1014.45 1014.65 1014.73 1014.77 1014.73 1014.77 1014.81 1014.97 1015.21 1015.41 1015.61 1015.77 1015.85 1016.01 1016.25 1016.45 1016.57 1016.73
1014.61 1014.53 1014.41 1014.37 1014.29 1014.25 1014.17 1014.09 1014.09 1014.09 1014.05 1014.01 1014.01 1013.93 1013.81 1013.77 1013.69 1013.65 1013.57 1013.53 1013.49 1013.37 1013.29 1013.21 1013.21 1013.29 1013.45 1013.65 1013.69 1013.73 1013.69 1013.65 1013.61 1013.57 1013.57 1013.65 1013.77 1013.81 1013.85 1013.81 1013.65 1013.57 1013.53 1013.53 1013.53 1013.57 1013.81 1014.09 1014.33 1014.49 1014.65 1014.89 1015.13 1015.25 1015.17 1014.93 1014.77 1014.77 1014.93 1015.17 1015.37 1015.53 1015.65 1015.77 1015.93 1016.09 1016.25 1016.37 1016.53
1014.61 1014.53 1014.41 1014.33 1014.25 1014.17 1014.13 1014.09 1014.05 1013.97 1013.93 1013.93 1013.89 1013.81 1013.69 1013.61 1013.53 1013.37 1013.25 1013.21 1013.21 1013.13 1013.09 1013.09 1013.13 1013.25 1013.53 1013.81 1013.97 1014.05 1014.01 1013.93 1013.77 1013.61 1013.49 1013.45 1013.53 1013.65 1013.73 1013.73 1013.65 1013.57 1013.45 1013.37 1013.49 1013.69 1014.01 1014.29 1014.45 1014.65 1014.81 1015.09 1015.37 1015.37 1015.21 1014.93 1014.73 1014.69 1014.81 1014.97 1015.21 1015.37 1015.53 1015.61 1015.65 1015.77 1015.93 1016.05 1016.17
1014.69 1014.57 1014.45 1014.37 1014.29 1014.25 1014.17 1014.09 1014.05 1014.01 1013.93 1013.85 1013.81 1013.65 1013.53 1013.41 1013.29 1013.17 1013.05 1012.93 1012.81 1012.81 1012.93 1013.21 1013.41 1013.61 1013.81 1014.17 1014.37 1014.37 1014.17 1013.93 1013.65 1013.49 1013.37 1013.37 1013.45 1013.57 1013.73 1013.81 1013.81 1013.73 1013.61 1013.57 1013.65 1013.89 1014.09 1014.29 1014.57 1014.81 1015.09 1015.33 1015.37 1015.29 1015.09 1014.85 1014.65 1014.57 1014.65 1014.81 1014.93 1015.09 1015.21 1015.33 1015.37 1015.45 1015.57 1015.69 1015.85
1014.77 1014.65 1014.53 1014.45 1014.37 1014.25 1014.21 1014.13 1014.05 1013.97 1013.89 1013.81 1013.65 1013.53 1013.45 1013.33 1013.17 1013.01 1012.85 1012.73 1012.77 1012.97 1013.33 1013.65 1013.93 1014.17 1014.41 1014.61 1014.69 1014.53 1014.25 1013.97 1013.73 1013.53 1013.41 1013.41 1013.49 1013.61 1013.85 1014.13 1014.25 1014.21 1014.09 1014.09 1013.97 1014.01 1014.09 1014.33 1014.73 1015.17 1015.45 1015.49 1015.33 1015.13 1014.93 1014.69 1014.53 1014.53 1014.57 1014.69 1014.81 1014.85 1014.93 1014.97 1015.09 1015.21 1015.37 1015.53 1015.65
1014.81 1014.65 1014.57 1014.49 1014.37 1014.25 1014.21 1014.17 1014.05 1013.93 1013.85 1013.73 1013.57 1013.45 1013.33 1013.17 1013.01 1012.81 1012.77 1012.89 1013.21 1013.65 1013.97 1014.09 1014.17 1014.45 1014.69 1014.81 1014.89 1014.81 1014.65 1014.37 1014.09 1013.81 1013.69 1013.65 1013.69 1013.85 1014.13 1014.49 1014.65 1014.65 1014.57 1014.41 1014.29 1014.21 1014.21 1014.37 1014.73 1015.13 1015.37 1015.33 1015.21 1015.01 1014.81 1014.57 1014.49 1014.53 1014.65 1014.73 1014.77 1014.81 1014.81 1014.85 1014.93 1015.05 1015.21 1015.41 1015.57
1014.77 1014.65 1014.53 1014.49 1014.37 1014.33 1014.25 1014.17 1014.09 1013.93 1013.81 1013.69 1013.53 1013.37 1013.21 1013.09 1012.93 1012.89 1012.97 1013.25 1013.65 1014.01 1014.21 1014.21 1014.33 1014.53 1014.81 1015.01 1015.17 1015.21 1015.05 1014.77 1014.53 1014.29 1014.21 1014.25 1014.25 1014.41 1014.65 1014.93 1014.97 1014.89 1014.65 1014.49 1014.33 1014.21 1014.21 1014.29 1014.49 1014.65 1014.81 1014.93 1014.93 1014.85 1014.73 1014.65 1014.65 1014.73 1014.85 1014.93 1014.85 1014.77 1014.73 1014.73 1014.81 1014.93 1015.09 1015.33 1015.53
1014.77 1014.65 1014.57 1014.49 1014.37 1014.33 1014.29 1014.17 1014.09 1013.93 1013.81 1013.65 1013.53 1013.37 1013.21 1013.09 1013.09 1013.25 1013.49 1013.53 1013.65 1013.81 1013.93 1014.13 1014.49 1014.81 1015.09 1015.25 1015.37 1015.33 1015.21 1015.09 1014.97 1014.93 1014.93 1015.05 1015.09 1015.17 1015.21 1015.25 1015.13 1014.93 1014.65 1014.37 1014.25 1014.25 1014.21 1014.21 1014.25 1014.37 1014.53 1014.65 1014.77 1014.81 1014.85 1014.85 1014.89 1014.97 1015.09 1015.13 1015.05 1014.89 1014.73 1014.65 1014.73 1014.85 1015.05 1015.29 1015.53
1014.81 1014.65 1014.57 1014.49 1014.37 1014.37 1014.25 1014.17 1014.05 1013.93 1013.81 1013.69 1013.57 1013.45 1013.37 1013.25 1013.45 1013.69 1013.81 1013.65 1013.53 1013.61 1013.81 1014.17 1014.61 1014.93 1015.21 1015.37 1015.41 1015.37 1015.37 1015.37 1015.37 1015.33 1015.37 1015.45 1015.57 1015.65 1015.53 1015.41 1015.17 1014.93 1014.65 1014.45 1014.37 1014.37 1014.33 1014.33 1014.37 1014.53 1014.65 1014.81 1014.93 1014.97 1014.93 1014.93 1015.05 1015.17 1015.29 1015.37 1015.29 1015.09 1014.85 1014.73 1014.73 1014.85 1015.05 1015.29 1015.53
1014.81 1014.69 1014.57 1014.53 1014.41 1014.37 1014.25 1014.17 1014.05 1013.93 1013.85 1013.73 1013.65 1013.57 1013.53 1013.61 1013.81 1014.09 1014.09 1013.93 1013.77 1013.81 1013.97 1014.25 1014.53 1014.81 1015.01 1015.29 1015.49 1015.53 1015.61 1015.65 1015.65 1015.61 1015.61 1015.65 1015.65 1015.65 1015.61 1015.49 1015.29 1015.09 1014.89 1014.73 1014.65 1014.65 1014.61 1014.65 1014.77 1014.85 1015.01 1015.17 1015.21 1015.21 1015.13 1015.17 1015.29 1015.41 1015.53 1015.61 1015.53 1015.37 1015.09 1014.89 1014.85 1014.93 1015.09 1015.33 1015.53
1014.89 1014.77 1014.65 1014.53 1014.45 1014.37 1014.25 1014.21 1014.09 1013.97 1013.89 1013.81 1013.73 1013.65 1013.69 1013.81 1013.93 1014.13 1014.29 1014.29 1014.13 1014.09 1014.13 1014.29 1014.49 1014.69 1014.97 1015.33 1015.61 1015.81 1015.89 1015.93 1015.93 1015.93 1015.89 1015.93 1015.89 1015.85 1015.81 1015.69 1015.61 1015.53 1015.37 1015.21 1015.21 1015.21 1015.21 1015.21 1015.25 1015.33 1015.41 1015.53 1015.61 1015.57 1015.57 1015.61 1015.73 1015.81 1015.89 1015.93 1015.89 1015.77 1015.53 1015.33 1015.25 1015.25 1015.33 1015.49 1015.65
1015.05 1014.93 1014.81 1014.65 1014.53 1014.45 1014.37 1014.25 1014.09 1014.01 1013.93 1013.85 1013.81 1013.77 1013.81 1013.85 1013.89 1014.05 1014.25 1014.37 1014.33 1014.29 1014.29 1014.41 1014.61 1014.89 1015.21 1015.53 1015.81 1016.09 1016.21 1016.21 1016.21 1016.21 1016.25 1016.25 1016.29 1016.25 1016.17 1016.13 1016.13 1016.05 1015.93 1015.81 1015.81 1015.85 1015.89 1015.93 1015.93 1015.93 1015.97 1016.05 1016.09 1016.13 1016.13 1016.17 1016.25 1016.33 1016.33 1016.29 1016.25 1016.21 1016.09 1015.97 1015.89 1015.81 1015.85 1015.93 1016.01
1015.21 1015.09 1014.93 1014.81 1014.65 1014.53 1014.45 1014.25 1014.17 1014.05 1013.93 1013.89 1013.85 1013.89 1013.93 1013.93 1013.93 1013.93 1014.05 1014.25 1014.45 1014.57 1014.65 1014.73 1014.85 1015.09 1015.33 1015.61 1015.93 1016.21 1016.33 1016.33 1016.37 1016.37 1016.45 1016.53 1016.57 1016.61 1016.61 1016.61 1016.61 1016.57 1016.53 1016.45 1016.45 1016.49 1016.49 1016.53 1016.53 1016.53 1016.53 1016.53 1016.57 1016.61 1016.61 1016.61 1016.65 1016.69 1016.65 1016.57 1016.57 1016.57 1016.53 1016.53 1016.49 1016.45 1016.41 1016.41 1016.41
1015.41 1015.25 1015.09 1014.93 1014.81 1014.65 1014.49 1014.33 1014.25 1014.13 1014.05 1013.97 1013.97 1014.05 1014.09 1014.13 1014.09 1014.05 1014.09 1014.29 1014.61 1014.81 1014.93 1015.05 1015.17 1015.25 1015.45 1015.65 1015.93 1016.17 1016.37 1016.45 1016.53 1016.53 1016.61 1016.65 1016.73 1016.81 1016.85 1016.89 1016.93 1016.93 1016.89 1016.89 1016.93 1016.93 1016.93 1016.93 1016.93 1016.93 1016.93 1016.85 1016.81 1016.81 1016.81 1016.81 1016.81 1016.81 1016.81 1016.73 1016.77 1016.81 1016.81 1016.81 1016.77 1016.73 1016.65 1016.65 1016.61
1015.61 1015.45 1015.25 1015.09 1014.93 1014.73 1014.57 1014.41 1014.33 1014.25 1014.17 1014.09 1014.09 1014.17 1014.33 1014.45 1014.49 1014.49 1014.57 1014.73 1014.93 1015.09 1015.17 1015.37 1015.49 1015.57 1015.73 1015.93 1016.09 1016.25 1016.49 1016.65 1016.69 1016.69 1016.77 1016.81 1016.89 1016.93 1017.05 1017.09 1017.09 1017.09 1017.09 1017.09 1017.09 1017.09 1017.13 1017.21 1017.21 1017.13 1017.09 1016.97 1016.93 1016.85 1016.81 1016.81 1016.81 1016.81 1016.81 1016.81 1016.81 1016.81 1016.81 1016.81 1016.73 1016.69 1016.65 1016.61 1016.65
1015.65 1015.53 1015.37 1015.17 1015.01 1014.81 1014.65 1014.53 1014.45 1014.37 1014.37 1014.29 1014.33 1014.37 1014.53 1014.77 1014.97 1015.17 1015.25 1015.37 1015.41 1015.45 1015.53 1015.65 1015.77 1015.89 1016.05 1016.17 1016.29 1016.45 1016.65 1016.89 1016.93 1016.93 1016.97 1017.05 1017.09 1017.17 1017.21 1017.21 1017.21 1017.21 1017.21 1017.21 1017.21 1017.25 1017.29 1017.33 1017.25 1017.21 1017.13 1017.09 1017.01 1016.93 1016.93 1016.89 1016.81 1016.81 1016.81 1016.81 1016.77 1016.73 1016.69 1016.65 1016.61 1016.57 1016.53 1016.53 1016.53
1015.69 1015.53 1015.37 1015.21 1015.05 1014.93 1014.81 1014.69 1014.61 1014.53 1014.53 1014.57 1014.61 1014.69 1014.81 1015.09 1015.49 1015.77 1015.93 1015.97 1015.93 1015.93 1015.93 1015.97 1016.09 1016.25 1016.41 1016.49 1016.53 1016.65 1016.81 1017.01 1017.09 1017.13 1017.17 1017.21 1017.21 1017.25 1017.29 1017.33 1017.29 1017.25 1017.25 1017.25 1017.33 1017.33 1017.33 1017.37 1017.33 1017.25 1017.21 1017.13 1017.09 1017.05 1017.01 1016.93 1016.93 1016.85 1016.81 1016.77 1016.69 1016.65 1016.61 1016.57 1016.53 1016.45 1016.41 1016.41 1016.41
1015.69 1015.53 1015.37 1015.21 1015.09 1015.01 1014.93 1014.81 1014.77 1014.77 1014.85 1014.93 1014.93 1015.01 1015.13 1015.45 1015.81 1016.05 1016.17 1016.25 1016.25 1016.29 1016.29 1016.29 1016.49 1016.65 1016.77 1016.81 1016.85 1016.93 1017.05 1017.13 1017.21 1017.21 1017.21 1017.21 1017.21 1017.21 1017.25 1017.29 1017.25 1017.21 1017.21 1017.25 1017.29 1017.33 1017.29 1017.29 1017.25 1017.21 1017.21 1017.21 1017.17 1017.13 1017.09 1017.01 1016.93 1016.89 1016.81 1016.73 1016.65 1016.57 1016.53 1016.45 1016.37 1016.37 1016.33 1016.29 1016.25
1015.69 1015.53 1015.41 1015.33 1015.21 1015.13 1015.09 1015.01 1014.97 1015.01 1015.09 1015.17 1015.21 1015.29 1015.53 1015.81 1016.01 1016.17 1016.29 1016.37 1016.49 1016.53 1016.57 1016.65 1016.89 1017.01 1017.09 1017.09 1017.09 1017.17 1017.21 1017.25 1017.21 1017.21 1017.21 1017.21 1017.21 1017.21 1017.21 1017.17 1017.17 1017.17 1017.17 1017.17 1017.21 1017.21 1017.21 1017.21 1017.17 1017.17 1017.21 1017.21 1017.17 1017.13 1017.09 1017.05 1016.97 1016.93 1016.81 1016.73 1016.65 1016.57 1016.53 1016.45 1016.37 1016.37 1016.33 1016.25 1016.25
1015.73 1015.57 1015.49 1015.41 1015.37 1015.29 1015.25 1015.21 1015.21 1015.25 1015.33 1015.37 1015.37 1015.57 1015.81 1016.01 1016.21 1016.37 1016.45 1016.57 1016.65 1016.77 1016.89 1017.01 1017.17 1017.25 1017.29 1017.29 1017.33 1017.33 1017.33 1017.33 1017.29 1017.29 1017.25 1017.21 1017.17 1017.17 1017.13 1017.09 1017.09 1017.09 1017.09 1017.09 1017.13 1017.13 1017.13 1017.17 1017.13 1017.17 1017.17 1017.17 1017.17 1017.17 1017.13 1017.09 1017.01 1016.97 1016.93 1016.85 1016.77 1016.65 1016.61 1016.53 1016.41 1016.37 1016.29 1016.25 1016.17
1015.77 1015.65 1015.61 1015.53 1015.49 1015.45 1015.37 1015.37 1015.37 1015.41 1015.53 1015.61 1015.65 1015.81 1016.05 1016.25 1016.41 1016.57 1016.65 1016.77 1016.89 1017.05 1017.21 1017.33 1017.45 1017.53 1017.53 1017.49 1017.41 1017.37 1017.37 1017.37 1017.37 1017.29 1017.25 1017.21 1017.21 1017.17 1017.09 1017.09 1017.01 1017.01 1017.01 1017.01 1017.09 1017.09 1017.09 1017.09 1017.13 1017.21 1017.21 1017.21 1017.21 1017.21 1017.21 1017.17 1017.09 1017.09 1017.01 1016.93 1016.81 1016.73 1016.65 1016.53 1016.41 1016.29 1016.21 1016.13 1016.01
1015.85 1015.81 1015.77 1015.69 1015.65 1015.61 1015.53 1015.53 1015.53 1015.57 1015.69 1015.81 1015.93 1016.09 1016.33 1016.49 1016.57 1016.69 1016.81 1016.97 1017.13 1017.33 1017.49 1017.61 1017.65 1017.65 1017.65 1017.53 1017.53 1017.45 1017.41 1017.37 1017.37 1017.33 1017.29 1017.25 1017.21 1017.17 1017.09 1017.01 1016.97 1016.93 1016.89 1016.93 1016.97 1017.01 1017.05 1017.05 1017.13 1017.21 1017.25 1017.25 1017.29 1017.29 1017.29 1017.25 1017.21 1017.13 1017.09 1016.97 1016.89 1016.73 1016.61 1016.49 1016.37 1016.21 1016.09 1016.01 1015.89
1016.05 1016.01 1015.93 1015.93 1015.85 1015.81 1015.81 1015.77 1015.77 1015.85 1015.93 1016.09 1016.25 1016.41 1016.61 1016.73 1016.81 1016.93 1017.05 1017.21 1017.41 1017.61 1017.73 1017.81 1017.81 1017.77 1017.65 1017.57 1017.53 1017.49 1017.45 1017.41 1017.41 1017.37 1017.33 1017.25 1017.21 1017.17 1017.09 1017.01 1016.93 1016.85 1016.81 1016.77 1016.81 1016.89 1017.01 1017.09 1017.17 1017.25 1017.37 1017.37 1017.37 1017.37 1017.37 1017.33 1017.25 1017.21 1017.09 1017.01 1016.89 1016.73 1016.61 1016.45 1016.33 1016.25 1016.13 1016.05 1015.93
1016.29 1016.25 1016.25 1016.21 1016.09 1016.05 1016.05 1016.09 1016.09 1016.13 1016.25 1016.37 1016.53 1016.65 1016.81 1016.93 1017.09 1017.21 1017.33 1017.53 1017.69 1017.81 1017.89 1017.93 1017.93 1017.85 1017.73 1017.65 1017.57 1017.53 1017.49 1017.45 1017.45 1017.37 1017.37 1017.25 1017.21 1017.17 1017.09 1016.93 1016.85 1016.69 1016.57 1016.53 1016.65 1016.85 1017.05 1017.17 1017.25 1017.37 1017.41 1017.49 1017.49 1017.45 1017.41 1017.37 1017.33 1017.25 1017.17 1017.05 1016.93 1016.81 1016.69 1016.57 1016.45 1016.37 1016.25 1016.17 1016.09
1016.53 1016.53 1016.53 1016.49 1016.37 1016.37 1016.37 1016.37 1016.37 1016.45 1016.57 1016.65 1016.73 1016.85 1017.05 1017.21 1017.33 1017.49 1017.61 1017.77 1017.89 1017.93 1018.01 1017.97 1018.01 1017.93 1017.85 1017.73 1017.65 1017.61 1017.53 1017.49 1017.45 1017.37 1017.37 1017.25 1017.21 1017.17 1017.05 1016.85 1016.65 1016.53 1016.49 1016.57 1016.77 1017.01 1017.21 1017.33 1017.45 1017.53 1017.57 1017.61 1017.65 1017.61 1017.53 1017.45 1017.37 1017.33 1017.21 1017.09 1017.01 1016.89 1016.81 1016.65 1016.57 1016.45 1016.37 1016.25 1016.13
1016.81 1016.85 1016.81 1016.65 1016.65 1016.65 1016.65 1016.73 1016.81 1016.85 1016.93 1017.01 1017.09 1017.17 1017.33 1017.53 1017.65 1017.73 1017.81 1017.89 1017.93 1017.97 1018.01 1018.01 1018.01 1017.93 1017.89 1017.77 1017.65 1017.61 1017.57 1017.49 1017.45 1017.37 1017.33 1017.21 1017.13 1017.01 1016.85 1016.69 1016.61 1016.65 1016.81 1016.93 1017.09 1017.21 1017.37 1017.53 1017.61 1017.65 1017.69 1017.69 1017.69 1017.65 1017.61 1017.53 1017.45 1017.37 1017.25 1017.13 1017.05 1016.93 1016.81 1016.65 1016.57 1016.45 1016.33 1016.21 1016.09
1017.09 1017.09 1017.05 1016.89 1016.85 1016.93 1016.97 1017.05 1017.13 1017.21 1017.33 1017.41 1017.45 1017.53 1017.65 1017.77 1017.81 1017.89 1017.93 1017.93 1017.93 1017.93 1017.93 1017.93 1017.93 1017.85 1017.81 1017.69 1017.61 1017.53 1017.49 1017.45 1017.37 1017.33 1017.25 1017.13 1017.01 1016.93 1016.89 1016.81 1016.81 1017.01 1017.21 1017.25 1017.33 1017.41 1017.53 1017.61 1017.65 1017.69 1017.73 1017.73 1017.77 1017.69 1017.65 1017.53 1017.45 1017.37 1017.21 1017.09 1016.93 1016.85 1016.77 1016.65 1016.49 1016.37 1016.25 1016.09 1015.97
1017.33 1017.33 1017.29 1017.21 1017.21 1017.21 1017.25 1017.37 1017.49 1017.61 1017.69 1017.77 1017.81 1017.85 1017.85 1017.89 1017.89 1017.93 1017.93 1017.89 1017.89 1017.89 1017.89 1017.85 1017.81 1017.69 1017.65 1017.57 1017.49 1017.41 1017.37 1017.37 1017.33 1017.25 1017.17 1017.09 1017.05 1017.05 1017.05 1017.01 1017.05 1017.21 1017.37 1017.37 1017.45 1017.53 1017.53 1017.61 1017.65 1017.69 1017.77 1017.77 1017.77 1017.69 1017.61 1017.49 1017.37 1017.29 1017.13 1017.01 1016.85 1016.73 1016.61 1016.49 1016.37 1016.25 1016.13 1016.01 1015.89
1017.61 1017.65 1017.65 1017.65 1017.61 1017.57 1017.61 1017.69 1017.81 1017.89 1017.93 1017.97 1018.01 1018.01 1017.97 1017.93 1017.93 1017.89 1017.85 1017.85 1017.85 1017.81 1017.81 1017.73 1017.65 1017.57 1017.53 1017.49 1017.45 1017.45 1017.41 1017.37 1017.33 1017.25 1017.21 1017.17 1017.13 1017.13 1017.17 1017.17 1017.17 1017.37 1017.49 1017.45 1017.53 1017.57 1017.61 1017.65 1017.65 1017.73 1017.73 1017.69 1017.65 1017.65 1017.53 1017.45 1017.33 1017.21 1017.09 1016.93 1016.81 1016.65 1016.53 1016.37 1016.25 1016.13 1016.05 1015.93 1015.89
1018.01 1018.05 1018.09 1018.05 1018.01 1017.97 1018.01 1018.09 1018.13 1018.17 1018.13 1018.09 1018.09 1018.05 1018.01 1017.97 1017.93 1017.89 1017.85 1017.81 1017.81 1017.73 1017.69 1017.65 1017.57 1017.53 1017.45 1017.41 1017.41 1017.41 1017.37 1017.33 1017.25 1017.21 1017.21 1017.17 1017.21 1017.21 1017.25 1017.25 1017.21 1017.45 1017.65 1017.53 1017.57 1017.65 1017.65 1017.65 1017.69 1017.69 1017.65 1017.65 1017.61 1017.57 1017.53 1017.45 1017.37 1017.21 1017.09 1016.97 1016.81 1016.65 1016.53 1016.41 1016.29 1016.17 1016.09 1016.09 1016.09
1018.49 1018.49 1018.49 1018.45 1018.37 1018.37 1018.37 1018.37 1018.37 1018.37 1018.29 1018.25 1018.13 1018.09 1018.05 1017.97 1017.93 1017.93 1017.89 1017.89 1017.89 1017.81 1017.69 1017.65 1017.53 1017.49 1017.41 1017.37 1017.33 1017.33 1017.33 1017.29 1017.29 1017.25 1017.25 1017.21 1017.25 1017.29 1017.33 1017.37 1017.29 1017.53 1017.69 1017.65 1017.65 1017.65 1017.65 1017.65 1017.65 1017.61 1017.57 1017.53 1017.53 1017.53 1017.53 1017.53 1017.45 1017.37 1017.21 1017.09 1016.93 1016.81 1016.69 1016.57 1016.45 1016.37 1016.33 1016.33 1016.29
1018.93 1018.93 1018.89 1018.81 1018.77 1018.69 1018.65 1018.65 1018.53 1018.49 1018.37 1018.29 1018.21 1018.13 1018.09 1018.01 1017.97 1017.97 1017.97 1017.97 1017.93 1017.81 1017.65 1017.53 1017.49 1017.41 1017.37 1017.37 1017.37 1017.37 1017.37 1017.37 1017.33 1017.33 1017.33 1017.33 1017.37 1017.37 1017.37 1017.37 1017.37 1017.37 1017.49 1017.65 1017.65 1017.61 1017.61 1017.61 1017.57 1017.53 1017.49 1017.49 1017.53 1017.57 1017.61 1017.61 1017.57 1017.49 1017.37 1017.25 1017.13 1017.01 1016.93 1016.81 1016.73 1016.65 1016.61 1016.57 1016.53
1019.37 1019.29 1019.21 1019.13 1019.05 1018.93 1018.85 1018.81 1018.69 1018.61 1018.53 1018.37 1018.29 1018.25 1018.17 1018.13 1018.09 1018.01 1017.97 1017.93 1017.81 1017.73 1017.65 1017.61 1017.53 1017.53 1017.53 1017.49 1017.45 1017.41 1017.37 1017.37 1017.37 1017.37 1017.37 1017.37 1017.37 1017.37 1017.37 1017.37 1017.37 1017.29 1017.33 1017.53 1017.57 1017.57 1017.53 1017.53 1017.49 1017.45 1017.45 1017.49 1017.57 1017.65 1017.65 1017.69 1017.65 1017.57 1017.49 1017.37 1017.29 1017.21 1017.17 1017.09 1017.05 1016.93 1016.89 1016.81 1016.65
1019.69 1019.57 1019.49 1019.37 1019.25 1019.13 1019.05 1018.93 1018.89 1018.81 1018.69 1018.61 1018.53 1018.41 1018.33 1018.25 1018.13 1018.05 1017.93 1017.85 1017.81 1017.77 1017.73 1017.69 1017.65 1017.65 1017.57 1017.53 1017.53 1017.49 1017.45 1017.41 1017.37 1017.41 1017.41 1017.37 1017.37 1017.37 1017.37 1017.37 1017.37 1017.29 1017.29 1017.41 1017.53 1017.53 1017.53 1017.49 1017.45 1017.45 1017.45 1017.49 1017.53 1017.65 1017.69 1017.73 1017.73 1017.65 1017.61 1017.53 1017.45 1017.37 1017.33 1017.29 1017.25 1017.21 1017.09 1017.01 1016.85
1019.93 1019.81 1019.65 1019.53 1019.45 1019.33 1019.21 1019.13 1019.09 1019.01 1018.93 1018.81 1018.69 1018.57 1018.45 1018.37 1018.25 1018.09 1017.97 1017.89 1017.81 1017.81 1017.81 1017.73 1017.65 1017.65 1017.57 1017.53 1017.53 1017.53 1017.53 1017.49 1017.41 1017.41 1017.41 1017.37 1017.33 1017.33 1017.33 1017.37 1017.37 1017.33 1017.29 1017.37 1017.53 1017.53 1017.53 1017.49 1017.45 1017.45 1017.45 1017.45 1017.53 1017.61 1017.69 1017.73 1017.77 1017.73 1017.65 1017.57 1017.53 1017.45 1017.41 1017.37 1017.37 1017.33 1017.21 1017.13 1017.05
1020.09 1019.93 1019.81 1019.65 1019.57 1019.49 1019.37 1019.29 1019.21 1019.13 1019.05 1018.93 1018.81 1018.65 1018.53 1018.41 1018.29 1018.17 1018.05 1017.93 1017.89 1017.81 1017.81 1017.77 1017.69 1017.65 1017.65 1017.61 1017.57 1017.53 1017.53 1017.49 1017.45 1017.37 1017.37 1017.37 1017.33 1017.33 1017.33 1017.37 1017.37 1017.29 1017.21 1017.25 1017.37 1017.53 1017.53 1017.49 1017.49 1017.45 1017.45 1017.53 1017.57 1017.61 1017.65 1017.73 1017.73 1017.69 1017.65 1017.61 1017.57 1017.53 1017.49 1017.41 1017.37 1017.33 1017.25 1017.21 1017.09
Wind_Speed
6 6 5 5 4 4 4 4 4 4 4 5 6 6 7 7 7 7 6 6 5 5 5 4 4 4 4 4 5 5 5 5 5 5 5 5 5 5 6 6 6 6 6 7 7 6 6 6 5 4 3 3 3 3 3 2 3 3 3 3 3 3 3 4 4 4 5 5 4
7 7 6 6 5 5 4 4 4 5 5 5 5 6 6 6 6 6 6 6 5 5 5 4 4 4 4 5 5 5 5 6 6 6 5 5 5 5 6 6 6 6 7 7 7 6 6 6 5 4 3 3 3 3 3 3 3 3 3 4 3 3 3 3 4 5 5 5 5
7 7 7 7 6 6 5 4 5 6 7 7 6 6 5 5 5 6 6 6 6 5 5 5 4 5 5 6 6 5 5 5 5 5 5 5 5 6 6 6 6 7 7 7 6 6 6 6 5 4 3 3 4 4 3 3 3 3 3 4 3 3 3 3 4 4 3 3 3
8 8 7 7 8 8 6 5 6 7 7 6 6 6 6 6 6 6 6 6 6 6 5 5 5 5 5 6 6 6 5 5 5 5 5 5 6 6 6 6 7 7 7 7 7 7 7 6 5 4 4 4 4 4 4 3 4 4 4 4 4 4 3 3 2 1 0 1 1
8 8 8 8 9 8 7 6 6 6 6 5 5 5 6 6 6 6 7 7 7 7 7 7 7 7 7 7 7 7 6 6 5 5 5 5 6 7 7 7 7 7 7 7 7 7 7 7 5 4 4 4 3 3 3 4 4 3 3 2 2 1 1 1 1 1 1 2 2
9 9 9 9 9 9 8 6 7 7 7 6 6 7 7 6 7 7 8 9 9 10 10 10 9 8 8 8 8 8 7 6 5 5 6 7 8 8 8 8 8 8 7 7 8 8 7 5 4 4 4 4 5 5 5 5 4 3 1 2 1 0 0 1 1 2 2 3 4
12 13 13 13 13 11 10 9 9 9 8 8 9 10 10 10 10 10 11 10 10 10 10 8 7 7 8 9 9 9 9 8 7 7 8 8 8 9 9 9 9 8 7 7 7 6 4 4 3 3 4 4 5 7 8 7 5 2 1 1 1 2 2 3 3 3 4 5 7
15 15 16 16 15 14 13 12 10 9 9 9 10 12 13 13 14 13 13 11 11 10 9 8 8 8 9 11 11 11 11 10 10 9 8 7 8 9 10 10 9 9 8 6 4 4 3 3 2 3 3 4 5 8 9 9 6 3 2 3 3 4 4 5 5 5 5 7 8
14 15 15 15 15 14 13 13 12 11 11 11 12 13 14 15 15 14 13 12 10 10 9 10 11 12 13 14 15 16 15 13 11 9 7 6 7 9 10 10 10 10 8 6 4 3 4 3 3 3 3 4 6 8 9 9 6 4 4 4 4 4 5 5 6 6 6 6 7
15 15 15 14 14 14 14 14 13 13 13 13 14 14 15 15 14 14 12 10 9 9 10 11 13 14 14 15 16 17 16 13 11 9 8 8 9 10 11 12 13 13 11 9 5 3 4 3 2 4 7 8 10 11 11 9 6 5 4 3 3 4 4 3 4 4 4 3 3
16 16 15 14 14 15 15 14 14 13 14 14 15 15 15 14 14 12 9 7 8 10 12 11 11 12 13 13 14 15 15 13 11 10 9 9 10 11 13 14 15 14 13 12 8 3 1 1 3 7 11 12 12 12 11 8 7 6 5 4 4 4 4 3 2 1 1 1 1
16 15 15 15 15 15 15 14 13 14 14 15 16 16 15 14 13 10 7 6 6 7 8 9 10 11 11 11 12 13 14 13 13 12 12 13 14 14 14 15 15 14 14 13 10 7 4 3 6 9 12 13 10 8 7 6 6 7 7 7 6 5 4 3 2 1 0 0 1
15 15 15 14 15 15 15 14 13 13 14 15 15 15 14 13 12 9 7 5 3 3 4 7 9 10 10 10 11 12 13 13 14 15 15 15 15 15 14 14 15 14 13 12 10 8 7 6 7 8 9 10 7 5 4 4 5 6 8 9 8 7 5 3 2 1 1 1 1
15 15 15 14 15 14 14 14 13 12 13 14 14 14 13 12 10 9 7 5 5 5 6 6 6 7 8 10 11 13 14 14 14 14 13 12 12 13 14 14 15 14 13 11 9 8 7 7 7 7 7 7 6 4 4 3 4 6 8 9 9 7 5 2 1 1 1 1 0
15 15 15 15 15 14 13 13 12 11 12 13 12 12 11 9 8 7 6 6 6 6 5 4 4 5 7 10 13 14 14 13 12 11 11 11 12 12 13 14 14 14 12 11 9 8 8 8 8 8 8 8 8 7 7 6 5 5 6 7 8 6 4 3 2 1 0 0 1
16 16 16 16 15 14 14 13 11 10 11 11 11 10 8 6 5 5 5 6 5 5 4 4 4 6 8 11 12 13 12 10 9 10 11 12 12 13 14 14 14 14 13 12 11 11 11 11 10 10 10 11 11 11 10 10 8 7 7 7 8 8 8 8 7 6 4 3 3
17 17 17 17 16 16 15 14 12 11 11 12 12 10 7 5 4 3 3 4 5 5 6 6 7 7 8 9 9 9 8 8 8 10 11 12 13 14 14 14 15 15 14 14 13 13 13 13 12 12 12 12 12 11 11 11 10 9 9 10 11 11 11 11 11 10 9 8 7
18 18 18 18 18 17 17 16 15 14 14 14 13 11 9 8 7 5 5 5 6 7 8 8 8 7 7 7 6 5 5 7 8 9 9 10 11 12 12 12 13 13 13 13 13 13 13 13 13 12 11 11 10 10 9 9 9 9 9 10 10 10 10 10 10 9 9 8 8
18 19 19 19 19 18 18 17 16 16 15 14 13 12 12 13 12 10 8 8 9 9 9 9 8 7 5 5 4 5 6 7 8 8 8 9 9 9 10 10 10 10 11 11 11 11 11 11 11 10 9 8 8 7 7 7 7 7 7 7 7 7 7 7 7 7 6 6 6
18 18 19 19 19 18 18 17 16 16 15 14 13 14 14 15 14 12 11 11 10 10 10 9 9 8 7 7 7 7 7 6 7 8 8 8 9 9 8 8 8 8 8 8 8 8 8 9 8 8 8 8 7 7 7 6 6 5 5 5 5 5 5 6 6 6 6 6 6
18 18 18 18 18 18 17 16 15 15 15 14 14 14 14 14 14 13 13 12 11 11 10 10 10 10 9 8 7 8 7 6 7 8 8 8 8 7 7 6 6 6 6 6 6 6 7 7 7 7 7 7 7 7 7 6 6 6 5 4 5 5 6 6 6 6 6 6 6
17 17 17 17 17 17 16 15 15 14 14 14 14 13 13 12 12 12 12 12 11 11 10 10 11 10 9 8 8 8 7 6 6 6 6 6 5 5 4 4 4 4 4 4 4 5 5 5 6 6 6 6 7 7 7 7 6 6 6 5 6 6 6 6 6 6 7 7 7
17 16 16 15 15 15 15 15 14 14 14 13 12 12 11 11 11 10 10 10 10 10 10 10 10 10 9 8 8 8 7 6 5 5 4 4 3 3 3 2 2 2 2 2 2 2 3 3 3 4 4 4 5 6 6 6 6 6 6 6 7 7 7 7 7 7 7 7 7
16 16 14 13 14 14 14 14 13 13 12 11 11 10 10 10 9 9 9 10 10 10 10 9 8 8 8 8 7 7 6 5 4 4 4 3 3 2 2 1 1 1 0 0 1 1 1 1 1 1 2 2 3 4 5 5 6 6 6 7 7 7 7 7 7 7 7 7 7
16 15 14 13 14 14 13 13 12 11 11 10 10 9 9 9 9 9 9 10 10 10 10 9 8 7 6 6 6 5 4 4 4 4 4 3 3 3 2 2 1 1 1 1 3 4 3 2 1 0 1 2 3 4 4 5 6 6 7 7 7 7 7 7 8 8 8 8 8
15 15 14 14 14 13 13 13 12 11 10 9 9 9 9 8 8 9 9 9 9 9 9 8 7 5 4 4 3 3 3 3 3 3 3 3 3 3 3 3 2 2 2 2 4 5 5 4 2 1 1 2 2 3 4 4 5 6 7 7 7 7 7 8 8 8 8 8 9
14 15 15 14 14 14 13 12 11 10 10 9 9 9 9 8 8 8 9 9 9 8 7 6 5 3 2 2 2 3 3 2 3 3 3 3 4 4 4 4 3 3 3 3 6 6 6 5 3 2 0 1 2 2 3 4 5 6 6 7 7 7 7 8 8 8 8 7 8
15 15 15 15 15 14 13 12 11 10 10 9 9 9 9 9 9 9 9 9 8 7 6 4 3 2 2 2 2 2 3 3 3 3 3 3 4 4 4 4 4 4 5 6 7 8 7 5 4 2 1 1 2 2 3 3 4 5 5 6 6 7 7 7 7 7 8 8 8
15 15 16 16 15 14 13 11 10 10 9 9 8 8 9 9 9 9 9 8 7 5 4 3 2 2 2 2 2 2 3 3 3 3 3 4 4 5 5 6 6 7 7 8 7 7 6 5 4 2 1 1 2 2 3 3 4 4 5 5 6 7 7 8 8 8 8 8 9
15 15 15 15 14 13 12 11 11 10 9 8 8 9 9 9 8 8 7 6 4 3 2 3 3 3 3 3 3 3 3 3 3 4 4 4 5 5 5 6 6 4 1 3 6 7 7 6 4 3 2 2 2 2 3 3 3 4 4 5 6 7 8 8 9 9 9 9 9
15 15 14 14 13 13 12 11 11 11 10 10 10 9 9 8 7 6 4 3 2 2 2 3 4 4 4 4 3 3 3 4 4 4 4 5 5 5 5 6 5 6 9 11 10 9 8 6 5 3 2 2 2 2 3 4 4 4 5 5 7 7 8 8 8 9 9 10 10
15 15 14 14 14 13 12 11 11 11 11 10 10 9 7 6 4 3 2 2 2 2 3 4 5 5 5 5 4 4 4 4 4 4 5 5 5 5 6 8 7 8 10 11 10 9 7 5 4 3 1 1 2 3 3 4 4 5 5 6 7 8 8 8 8 9 10 10 10
15 15 15 15 15 13 12 12 11 10 9 8 8 7 5 4 3 3 3 3 3 4 4 5 6 5 5 5 4 4 5 5 5 5 5 6 6 6 7 7 5 6 10 9 9 8 6 5 4 2 1 1 2 3 4 4 4 5 5 6 7 8 9 9 9 9 10 10 9
16 16 16 15 15 14 12 11 10 9 7 6 5 5 4 5 5 5 5 4 4 4 5 5 5 5 5 4 4 5 5 5 5 5 5 6 6 6 5 6 3 5 9 8 8 7 6 5 4 2 0 2 2 3 4 5 5 5 6 7 8 8 9 9 9 9 9 10 9
17 16 16 15 14 13 12 10 9 7 6 5 5 5 5 6 6 6 6 5 5 5 5 5 5 5 5 4 3 4 4 5 5 6 6 6 5 5 5 6 3 5 9 7 7 6 5 4 3 1 1 2 3 4 5 6 6 7 8 9 9 9 9 9 9 9 9 9 9
17 16 15 14 13 12 10 9 7 6 6 5 6 6 7 7 7 7 6 6 6 7 7 7 6 6 5 5 4 4 4 6 6 6 6 5 5 5 5 5 4 3 7 6 6 5 5 4 2 1 3 3 4 4 5 5 6 7 8 9 9 9 10 10 10 9 9 9 9
16 15 14 13 12 10 9 7 7 7 7 7 7 8 8 9 8 7 7 6 6 7 7 7 7 7 7 7 6 5 5 6 6 6 6 5 5 5 4 5 5 2 3 6 6 5 4 3 2 3 4 4 3 4 4 4 5 6 7 8 8 9 9 9 9 9 9 9 9
15 14 12 11 10 9 9 8 8 8 9 9 9 10 10 9 9 7 6 5 6 7 8 8 8 8 8 7 7 6 6 6 6 5 5 5 5 4 4 4 5 5 2 5 6 5 4 3 3 3 3 2 3 3 3 4 4 5 5 6 7 7 8 8 7 8 8 9 11
13 12 11 9 9 10 10 10 10 10 11 11 11 11 11 10 9 8 7 6 7 7 8 8 8 8 7 7 6 6 6 6 6 5 5 5 5 4 4 3 4 5 3 3 5 5 4 3 3 3 2 2 2 2 2 3 4 4 5 5 5 6 6 6 6 7 8 9 13
11 10 10 9 10 11 11 12 11 11 11 11 11 11 11 10 9 9 8 7 7 7 7 8 8 8 7 6 5 6 6 6 6 5 5 5 5 5 4 3 4 5 4 2 4 5 4 3 3 2 2 1 2 2 2 2 3 4 4 4 4 5 5 5 6 6 7 8 11
9 9 10 10 10 11 11 11 10 10 10 10 10 10 9 9 9 9 8 7 7 7 7 6 7 7 6 5 5 5 5 6 6 6 6 6 6 5 5 4 5 6 5 3 3 5 6 5 4 3 2 2 1 1 1 2 3 4 4 4 4 4 5 5 5 6 6 7 7
Wind_Direction
296 300 301 300 298 294 291 287 287 286 285 285 283 283 282 282 283 284 285 285 283 279 275 267 260 256 255 253 253 254 254 251 249 246 246 248 252 256 260 263 265 265 264 264 263 262 257 246 235 228 223 218 220 224 225 222 223 225 225 222 224 225 223 216 209 203 199 193 189
304 304 301 297 292 287 283 282 281 281 279 277 275 274 274 274 276 277 278 279 279 278 276 272 263 257 253 251 251 251 253 252 251 249 249 251 256 259 263 265 264 262 260 258 257 257 253 245 235 227 221 217 217 218 218 211 208 215 225 230 231 231 228 224 218 214 210 203 192
303 299 294 290 286 283 279 277 276 277 278 278 276 274 273 271 270 270 270 269 269 270 271 272 267 261 257 255 253 252 253 254 255 256 258 261 266 269 271 271 270 268 264 259 254 251 248 243 234 226 220 219 218 218 217 212 203 206 215 226 229 229 226 222 218 218 218 212 193
300 297 294 291 289 285 279 272 270 271 273 276 279 279 279 278 277 275 273 271 269 268 267 268 268 266 263 261 259 256 254 254 257 263 270 276 278 278 278 276 275 273 271 267 261 255 249 241 237 230 222 220 222 223 223 222 213 211 213 222 232 235 233 221 210 211 275 279 229
303 302 300 298 296 291 284 274 270 267 266 268 272 275 278 280 281 282 282 281 278 274 270 266 266 265 264 263 262 260 259 258 262 268 275 280 280 278 274 270 266 265 264 264 262 258 252 246 249 247 240 235 237 241 242 240 233 226 217 214 239 247 236 131 74 34 342 296 267
311 310 308 305 304 301 298 292 286 282 278 276 275 275 275 275 276 277 278 279 278 276 273 270 268 268 269 270 270 269 267 265 264 264 266 269 272 272 270 267 262 259 257 256 256 257 259 267 272 275 278 287 285 282 276 266 254 240 190 103 103 127 205 207 236 261 266 259 242
316 315 313 311 310 309 309 308 304 300 297 293 290 287 284 281 276 273 271 271 272 274 274 273 273 276 281 284 284 283 282 278 270 263 259 259 264 269 273 273 270 266 261 258 259 269 288 310 307 311 315 312 292 280 274 266 258 243 159 130 167 195 208 211 209 212 218 225 227
317 316 315 314 314 313 312 312 312 311 309 306 302 298 294 289 284 278 273 269 267 267 270 275 281 284 287 289 291 292 290 286 280 274 270 269 273 276 278 279 277 275 272 271 283 309 336 350 350 339 322 296 274 265 261 257 250 236 213 212 208 208 209 210 198 192 197 209 220
318 318 317 317 317 316 315 314 313 311 309 306 303 301 298 295 290 285 279 272 268 270 278 290 295 297 296 293 291 290 288 286 287 290 294 296 293 291 291 290 291 291 292 297 316 354 24 33 4 328 298 274 265 261 258 254 248 237 227 228 224 217 211 207 198 194 197 206 220
319 319 318 318 318 318 317 316 315 312 309 306 304 301 299 296 293 289 285 284 290 299 305 307 307 306 304 298 294 292 292 293 295 298 301 302 303 305 306 307 307 307 307 306 319 6 42 43 342 285 269 265 266 265 263 258 254 247 241 236 236 233 228 219 208 202 200 206 228
319 318 318 318 319 319 319 318 316 313 310 307 304 302 299 296 294 294 300 319 323 320 316 314 315 314 311 306 302 300 300 300 302 305 311 317 325 326 323 316 311 309 306 302 303 315 44 100 239 248 252 259 264 267 269 271 274 274 271 265 254 247 242 235 231 223 217 215 265
317 317 317 317 319 319 319 318 315 313 310 307 305 303 301 298 301 312 334 354 336 319 316 327 332 329 324 317 310 306 304 306 315 324 334 341 342 338 330 317 307 301 297 295 294 289 271 231 228 236 244 255 262 270 282 295 298 294 287 279 266 253 239 228 220 213 193 24 353
317 317 317 318 319 319 318 317 315 312 310 309 308 308 308 308 318 334 354 5 1 359 358 357 346 336 327 317 312 313 319 326 336 342 346 346 341 332 322 310 302 297 295 294 295 294 291 280 268 264 266 271 278 289 304 313 309 299 289 281 271 259 241 221 206 184 143 63 12
318 318 318 319 319 319 317 316 314 313 312 313 314 317 321 326 337 346 356 7 27 33 26 7 342 325 317 316 324 332 337 340 341 341 340 337 330 321 314 309 308 307 306 306 308 310 312 314 311 310 310 314 321 328 333 330 313 299 289 283 277 270 258 232 205 170 148 129 188
320 320 320 320 320 319 318 316 315 315 316 317 320 327 336 346 352 352 352 0 18 25 21 358 332 322 326 336 344 345 343 339 337 337 336 335 332 330 329 329 329 329 329 331 337 344 350 352 350 350 353 357 358 359 359 355 339 319 305 298 299 302 311 335 354 11 70 173 221
323 323 322 322 321 320 319 319 318 318 319 319 324 333 345 0 3 360 355 355 5 9 7 355 350 353 355 355 349 344 340 340 346 350 352 353 355 356 357 356 355 354 354 357 4 10 12 14 13 15 18 20 18 16 14 12 4 354 346 343 343 347 353 1 3 4 3 2 355
326 325 325 324 323 322 321 320 320 319 319 320 325 332 343 357 2 4 4 1 5 7 8 8 9 6 359 348 338 335 341 355 5 9 11 13 14 14 14 13 10 8 9 14 19 20 20 21 22 24 26 28 27 26 24 22 18 13 9 7 3 3 3 5 5 5 5 4 1
327 326 325 325 323 322 321 320 319 319 319 321 325 329 334 338 339 342 353 12 19 17 14 15 13 2 347 334 334 344 1 13 18 23 27 28 26 25 23 20 17 16 17 22 25 25 24 24 25 26 28 31 31 31 29 26 21 15 10 7 5 3 1 0 360 359 358 354 349
326 325 324 323 322 321 320 319 319 320 320 322 326 329 330 330 331 338 356 22 30 28 24 22 21 15 6 359 15 30 34 26 26 31 37 38 36 33 30 27 24 23 24 26 28 28 27 26 25 24 25 26 25 24 22 20 13 7 2 359 356 352 348 344 342 339 335 331 327
323 322 322 321 320 320 320 321 322 323 323 325 331 333 333 331 335 348 9 29 33 34 34 36 37 39 40 41 47 51 48 37 30 33 38 40 39 36 33 30 28 27 28 31 32 31 30 27 23 19 16 13 10 7 5 3 358 353 347 341 333 325 319 315 312 310 307 305 301
321 320 320 319 319 320 322 326 327 329 331 335 340 342 343 344 352 6 21 33 34 36 41 48 49 48 47 47 52 55 54 45 36 36 38 41 40 38 35 30 28 28 29 32 34 34 32 27 19 13 8 4 359 355 351 347 341 335 329 321 312 306 303 299 295 292 289 285 281
319 319 319 319 321 323 327 331 334 338 343 348 351 356 2 11 18 25 31 35 35 37 42 51 50 47 43 42 48 53 56 51 44 42 42 44 45 43 40 33 28 26 25 29 34 34 32 27 18 11 5 358 351 346 340 336 331 325 319 312 305 300 296 291 286 282 278 274 271
318 319 320 321 324 328 332 337 342 349 355 359 2 12 25 37 38 39 39 39 38 38 41 51 50 46 43 42 43 48 52 50 46 43 42 42 41 42 40 38 25 18 18 34 45 43 37 31 18 9 1 351 342 336 331 327 322 317 312 308 304 301 299 295 292 288 284 279 275
319 321 323 326 330 333 337 342 349 357 4 6 13 27 42 52 50 48 47 46 44 43 43 49 50 47 43 43 43 44 44 41 34 29 25 21 18 13 7 357 341 316 282 154 136 135 126 88 36 5 349 337 332 328 324 321 319 316 314 312 311 309 307 304 300 295 291 286 282
321 324 328 331 334 337 340 344 351 1 9 12 22 36 49 58 56 53 51 50 48 46 45 45 46 43 39 39 40 40 37 31 21 12 5 359 353 345 336 321 297 271 242 182 158 161 165 163 155 102 336 330 330 329 327 325 322 321 319 317 314 310 306 301 296 290 285 280 275
326 330 332 335 337 339 341 343 351 1 11 16 27 38 48 54 57 55 51 48 45 43 41 40 39 35 30 28 27 27 24 20 6 356 349 342 335 328 320 306 292 272 246 216 177 176 177 173 160 145 356 333 334 333 330 325 322 318 314 310 305 301 297 293 289 283 278 273 270
333 336 337 338 338 339 341 344 351 1 12 18 30 39 45 46 50 51 48 44 40 37 34 31 29 24 11 8 7 8 6 1 346 336 329 323 317 312 307 298 291 276 249 218 190 186 183 174 158 145 84 336 332 328 323 318 314 311 307 303 298 294 291 289 288 287 286 285 284
341 342 341 341 340 341 343 347 354 5 15 23 35 42 44 42 43 43 43 41 36 30 24 14 1 343 331 341 346 348 345 338 326 317 311 306 302 299 296 290 284 271 251 226 199 187 177 164 152 142 114 341 326 318 312 309 309 307 306 303 300 299 299 300 302 305 307 308 308
347 346 345 343 342 344 348 354 2 12 21 26 36 42 43 41 39 39 40 39 33 24 9 345 330 321 320 325 325 325 323 316 308 303 299 297 293 288 283 279 276 268 254 229 193 170 153 138 126 108 74 2 325 313 310 309 309 308 307 306 306 307 308 309 310 311 310 309 308
351 349 346 343 345 351 358 6 12 17 20 20 26 34 39 40 39 39 38 35 26 12 348 325 317 311 309 307 306 305 302 297 294 293 291 287 281 276 272 273 282 290 289 139 128 121 113 102 91 76 53 9 329 312 308 307 306 305 303 301 301 301 302 302 302 302 301 300 298
353 349 346 344 350 359 7 15 18 19 19 18 22 29 35 35 36 35 31 16 358 334 309 297 291 287 286 286 285 285 285 284 285 284 283 281 281 286 297 308 340 37 73 87 93 95 95 92 88 78 56 11 328 308 302 301 298 296 294 293 292 293 294 294 294 293 292 291 290
353 351 348 348 354 1 9 17 20 21 21 22 23 26 29 26 22 11 344 312 305 294 283 273 270 270 271 272 274 275 277 280 283 286 290 296 309 327 340 341 15 63 89 94 96 100 106 112 112 106 83 355 302 292 290 289 289 288 288 287 287 287 288 288 287 287 287 286 287
355 355 354 353 354 359 5 14 19 22 22 21 20 17 11 355 334 310 296 290 285 278 272 268 267 268 269 272 278 285 292 296 297 302 308 317 330 342 348 342 18 89 111 115 116 122 129 135 132 128 130 276 279 285 291 293 292 291 290 289 288 288 287 286 287 287 288 290 293
356 358 358 354 354 357 2 9 15 17 16 11 4 354 338 320 307 299 292 284 276 270 268 267 268 270 274 280 293 303 308 310 314 320 326 331 335 341 344 337 19 110 126 135 133 136 141 140 136 133 251 287 294 305 313 316 312 307 303 300 298 297 296 295 295 296 300 305 311
355 357 358 354 354 356 359 3 6 5 359 347 335 323 313 305 300 298 295 291 287 284 282 280 278 282 289 300 307 312 315 319 327 333 336 338 338 341 339 330 9 113 132 148 142 143 145 140 134 108 347 335 339 337 333 329 322 317 314 312 310 309 309 309 311 315 320 326 331
354 356 356 354 353 353 354 355 353 346 337 325 317 312 309 306 304 303 303 301 298 297 297 297 300 308 318 329 331 331 332 335 337 338 338 339 338 337 332 323 349 112 143 159 155 154 152 143 123 50 12 6 360 351 341 334 326 322 320 318 317 318 319 321 326 330 334 337 338
353 354 353 352 349 347 345 342 337 330 325 321 321 320 319 317 316 315 313 308 306 307 311 317 325 332 338 342 342 340 338 337 336 336 336 337 335 329 323 317 321 312 164 157 169 170 161 144 103 54 30 18 7 354 343 335 328 323 322 321 321 324 327 330 333 335 336 335 334
352 351 349 347 343 340 337 336 335 334 332 332 333 332 331 328 325 322 320 316 319 325 330 334 335 336 337 338 336 334 332 330 331 332 334 332 328 320 311 306 303 310 309 158 178 179 168 142 101 72 52 31 13 358 346 334 327 324 323 323 325 329 333 335 335 333 331 329 327
350 348 346 345 343 342 342 344 346 344 342 340 339 338 336 332 329 327 327 329 334 336 335 333 329 328 328 330 329 328 327 326 327 329 328 324 318 311 302 296 294 303 302 188 185 183 175 152 119 96 78 54 29 8 349 333 323 320 320 322 325 328 331 331 329 326 324 324 322
348 347 346 347 349 349 349 350 350 347 342 339 337 335 333 331 328 328 328 330 332 332 329 325 322 321 322 326 326 326 325 324 323 321 317 312 311 309 305 299 295 300 297 233 188 184 185 179 157 139 116 71 49 25 351 326 316 314 315 320 324 325 325 323 320 318 317 316 317
346 346 347 348 349 349 347 346 343 338 333 329 329 328 327 325 324 323 323 323 324 324 322 319 317 317 318 321 322 323 323 320 316 313 311 310 314 315 316 316 311 310 308 297 199 190 195 201 192 176 143 75 60 35 343 316 311 312 317 323 326 324 320 317 314 312 310 309 308